| time (UTC) | temp F | wind direction | speed knots | gust knots | rain 1hr in | rain 24hr in | rain mn in | humidity % | barometer mb |
| 20260505035648 | 60 | 274 | 3.5 | 5.2 | 0.00 | 0.00 | 0.00 | 73 | 1021.0 |
| 20260505035144 | 60 | 190 | 3.5 | 6.1 | 0.00 | 0.00 | 0.00 | 73 | 1021.4 |
| 20260505034641 | 60 | 235 | 6.1 | 7.8 | 0.00 | 0.00 | 0.00 | 74 | 1021.3 |
| 20260505034139 | 60 | 221 | 7.0 | 8.7 | 0.00 | 0.00 | 0.00 | 74 | 1021.2 |
| 20260505033635 | 60 | 218 | 7.8 | 8.7 | 0.00 | 0.00 | 0.00 | 74 | 1021.5 |
| 20260505033133 | 60 | 208 | 4.3 | 7.0 | 0.00 | 0.00 | 0.00 | 74 | 1021.2 |
| 20260505032631 | 60 | 246 | 7.0 | 7.8 | 0.00 | 0.00 | 0.00 | 74 | 1021.2 |
| 20260505032127 | 61 | 228 | 6.1 | 7.8 | 0.00 | 0.00 | 0.00 | 73 | 1021.3 |
| 20260505031624 | 61 | 267 | 4.3 | 6.1 | 0.00 | 0.00 | 0.00 | 66 | 1021.2 |
| 20260505031120 | 61 | 266 | 4.3 | 5.2 | 0.00 | 0.00 | 0.00 | 65 | 1021.2 |
| 20260505030617 | 61 | 277 | 2.6 | 5.2 | 0.00 | 0.00 | 0.00 | 66 | 1021.5 |
| 20260505030113 | 61 | 281 | 3.5 | 5.2 | 0.00 | 0.00 | 0.00 | 65 | 1021.3 |
| 20260505025609 | 61 | 269 | 2.6 | 4.3 | 0.00 | 0.00 | 0.00 | 64 | 1021.4 |
| 20260505025109 | 61 | 254 | 2.6 | 4.3 | 0.00 | 0.00 | 0.00 | 66 | 1021.4 |
| 20260505024605 | 61 | 260 | 5.2 | 6.1 | 0.00 | 0.00 | 0.00 | 65 | 1021.6 |
| 20260505024102 | 61 | 252 | 1.7 | 2.6 | 0.00 | 0.00 | 0.00 | 63 | 1021.7 |
| 20260505023600 | 61 | 223 | 4.3 | 7.0 | 0.00 | 0.00 | 0.00 | 63 | 1021.8 |
| 20260505023057 | 61 | 194 | 5.2 | 5.2 | 0.00 | 0.00 | 0.00 | 66 | 1021.8 |
| 20260505022554 | 61 | 204 | 3.5 | 6.1 | 0.00 | 0.00 | 0.00 | 66 | 1021.8 |
| 20260505022051 | 60 | 240 | 3.5 | 7.0 | 0.00 | 0.00 | 0.00 | 67 | 1021.9 |
| 20260505021548 | 61 | 246 | 3.5 | 8.7 | 0.00 | 0.00 | 0.00 | 67 | 1021.8 |
| 20260505021044 | 60 | 251 | 0.0 | 2.6 | 0.00 | 0.00 | 0.00 | 68 | 1021.9 |
| 20260505020544 | 60 | 220 | 2.6 | 2.6 | 0.00 | 0.00 | 0.00 | 67 | 1021.9 |
| 20260505020042 | 60 | 242 | 2.6 | 7.0 | 0.00 | 0.00 | 0.00 | 68 | 1022.0 |
| 20260505015539 | 60 | 214 | 3.5 | 7.0 | 0.00 | 0.00 | 0.00 | 68 | 1021.9 |
| 20260505015035 | 60 | 205 | 4.3 | 6.1 | 0.00 | 0.00 | 0.00 | 68 | 1022.0 |
| 20260505014532 | 60 | 226 | 6.1 | 8.7 | 0.00 | 0.00 | 0.00 | 68 | 1022.0 |
| 20260505014029 | 60 | 243 | 2.6 | 7.0 | 0.00 | 0.00 | 0.00 | 70 | 1022.0 |
| 20260505013527 | 59 | 271 | 0.9 | 2.6 | 0.00 | 0.00 | 0.00 | 70 | 1021.9 |
| 20260505013024 | 59 | 249 | 5.2 | 6.1 | 0.00 | 0.00 | 0.00 | 71 | 1021.9 |
| 20260505012522 | 59 | 174 | 2.6 | 4.3 | 0.00 | 0.00 | 0.00 | 73 | 1021.7 |
| 20260505012019 | 59 | 234 | 0.9 | 1.7 | 0.00 | 0.00 | 0.00 | 74 | 1022.0 |
| 20260505011514 | 59 | 282 | 0.9 | 2.6 | 0.00 | 0.00 | 0.00 | 74 | 1021.9 |
| 20260505011011 | 59 | 173 | 2.6 | 6.1 | 0.00 | 0.00 | 0.00 | 74 | 1021.7 |
| 20260505010506 | 59 | 256 | 1.7 | 4.3 | 0.00 | 0.00 | 0.00 | 74 | 1021.7 |
| 20260505010003 | 60 | 186 | 4.3 | 6.1 | 0.00 | 0.00 | 0.00 | 74 | 1021.6 |
| 20260505005500 | 60 | 176 | 3.5 | 5.2 | 0.00 | 0.00 | 0.00 | 74 | 1021.6 |
| 20260505004958 | 59 | 174 | 2.6 | 4.3 | 0.00 | 0.00 | 0.00 | 74 | 1021.6 |
| 20260505004454 | 60 | 190 | 2.6 | 4.3 | 0.00 | 0.00 | 0.00 | 74 | 1021.5 |
| 20260505003951 | 60 | 164 | 2.6 | 6.1 | 0.00 | 0.00 | 0.00 | 73 | 1021.3 |
| 20260505003448 | 60 | 196 | 2.6 | 5.2 | 0.00 | 0.00 | 0.00 | 73 | 1021.2 |
| 20260505002944 | 60 | 265 | 1.7 | 4.3 | 0.00 | 0.00 | 0.00 | 74 | 1021.3 |
| 20260505002441 | 60 | 259 | 1.7 | 2.6 | 0.00 | 0.00 | 0.00 | 73 | 1021.3 |
| 20260505001939 | 61 | 274 | 2.6 | 4.3 | 0.00 | 0.00 | 0.00 | 72 | 1021.1 |
| 20260505001436 | 61 | 172 | 0.9 | 2.6 | 0.00 | 0.00 | 0.00 | 72 | 1021.1 |
| 20260505000933 | 60 | 71 | 1.7 | 2.6 | 0.00 | 0.00 | 0.00 | 74 | 1021.1 |
| 20260505000431 | 60 | 350 | 0.9 | 1.7 | 0.00 | 0.00 | 0.00 | 76 | 1021.3 |
| 20260504235928 | 59 | 302 | 0.0 | 1.7 | 0.00 | 0.00 | 0.00 | 76 | 1021.2 |
| 20260504235425 | 58 | 309 | 0.0 | 0.9 | 0.00 | 0.00 | 0.00 | 77 | 1021.2 |
| 20260504234921 | 58 | 94 | 0.9 | 2.6 | 0.00 | 0.00 | 0.00 | 79 | 1021.1 |
| 20260504234419 | 59 | 172 | 2.6 | 2.6 | 0.00 | 0.00 | 0.00 | 79 | 1021.1 |
| 20260504233915 | 58 | 140 | 1.7 | 1.7 | 0.00 | 0.00 | 0.00 | 80 | 1021.0 |
| 20260504233411 | 57 | 277 | 0.9 | 2.6 | 0.00 | 0.00 | 0.00 | 81 | 1021.0 |
| 20260504232908 | 58 | 161 | 1.7 | 4.3 | 0.00 | 0.00 | 0.00 | 82 | 1020.9 |
| 20260504232405 | 57 | 64 | 2.6 | 4.3 | 0.00 | 0.00 | 0.00 | 83 | 1020.9 |
| 20260504231902 | 57 | 83 | 3.5 | 4.3 | 0.00 | 0.00 | 0.00 | 84 | 1020.7 |
| 20260504231358 | 57 | 86 | 2.6 | 5.2 | 0.00 | 0.00 | 0.00 | 85 | 1020.9 |
| 20260504230854 | 57 | 85 | 1.7 | 5.2 | 0.00 | 0.00 | 0.00 | 85 | 1020.9 |
| 20260504230352 | 57 | 133 | 2.6 | 4.3 | 0.00 | 0.00 | 0.00 | 85 | 1020.7 |
| 20260504225851 | 57 | 82 | 3.5 | 5.2 | 0.00 | 0.00 | 0.00 | 85 | 1020.7 |
| 20260504225347 | 57 | 107 | 3.5 | 4.3 | 0.00 | 0.00 | 0.00 | 85 | 1020.8 |
| 20260504224845 | 56 | 120 | 4.3 | 5.2 | 0.00 | 0.00 | 0.00 | 85 | 1020.8 |
| 20260504224341 | 56 | 110 | 3.5 | 5.2 | 0.00 | 0.00 | 0.00 | 86 | 1020.9 |
| 20260504223838 | 56 | 130 | 3.5 | 5.2 | 0.00 | 0.00 | 0.00 | 86 | 1020.7 |
| 20260504223333 | 56 | 124 | 3.5 | 5.2 | 0.00 | 0.00 | 0.00 | 86 | 1020.6 |
| 20260504222830 | 56 | 134 | 3.5 | 5.2 | 0.00 | 0.00 | 0.00 | 87 | 1020.7 |
| 20260504222327 | 56 | 80 | 3.5 | 5.2 | 0.00 | 0.00 | 0.00 | 87 | 1020.5 |
| 20260504221826 | 56 | 97 | 4.3 | 5.2 | 0.00 | 0.00 | 0.00 | 87 | 1020.5 |
| 20260504221322 | 56 | 80 | 4.3 | 5.2 | 0.00 | 0.00 | 0.00 | 87 | 1020.4 |
| 20260504220819 | 56 | 96 | 4.3 | 6.1 | 0.00 | 0.00 | 0.00 | 87 | 1020.3 |
| 20260504220316 | 56 | 128 | 3.5 | 4.3 | 0.00 | 0.00 | 0.00 | 87 | 1020.3 |
| 20260504215813 | 55 | 133 | 3.5 | 5.2 | 0.00 | 0.00 | 0.00 | 88 | 1020.3 |
| 20260504215309 | 55 | 111 | 3.5 | 5.2 | 0.00 | 0.00 | 0.00 | 88 | 1020.3 |
| 20260504214805 | 56 | 100 | 3.5 | 5.2 | 0.00 | 0.00 | 0.00 | 88 | 1020.2 |
| 20260504214302 | 55 | 98 | 2.6 | 2.6 | 0.00 | 0.00 | 0.00 | 88 | 1020.2 |
| 20260504213759 | 55 | 88 | 2.6 | 4.3 | 0.00 | 0.00 | 0.00 | 88 | 1020.0 |
| 20260504213255 | 55 | 83 | 4.3 | 5.2 | 0.00 | 0.00 | 0.00 | 89 | 1020.1 |
| 20260504212752 | 55 | 87 | 1.7 | 4.3 | 0.00 | 0.00 | 0.00 | 89 | 1019.8 |
| 20260504212248 | 55 | 127 | 3.5 | 5.2 | 0.00 | 0.00 | 0.00 | 89 | 1019.8 |
| 20260504211746 | 55 | 112 | 3.5 | 5.2 | 0.00 | 0.00 | 0.00 | 89 | 1019.9 |
| 20260504211242 | 55 | 145 | 4.3 | 6.1 | 0.00 | 0.00 | 0.00 | 89 | 1019.8 |
| 20260504210740 | 56 | 145 | 4.3 | 7.0 | 0.00 | 0.00 | 0.00 | 89 | 1019.9 |
| 20260504210237 | 55 | 109 | 2.6 | 6.1 | 0.00 | 0.00 | 0.00 | 89 | 1019.5 |
| 20260504205734 | 55 | 136 | 4.3 | 6.1 | 0.00 | 0.00 | 0.00 | 89 | 1019.6 |
| 20260504205232 | 55 | 152 | 6.1 | 7.0 | 0.00 | 0.00 | 0.00 | 89 | 1019.5 |
| 20260504204730 | 55 | 162 | 3.5 | 6.1 | 0.00 | 0.00 | 0.00 | 89 | 1019.5 |
| 20260504204228 | 55 | 149 | 2.6 | 4.3 | 0.00 | 0.00 | 0.00 | 89 | 1019.8 |
| 20260504203727 | 55 | 188 | 2.6 | 5.2 | 0.00 | 0.00 | 0.00 | 89 | 1019.8 |
| 20260504203223 | 55 | 198 | 2.6 | 7.8 | 0.00 | 0.00 | 0.00 | 89 | 1019.4 |
| 20260504202718 | 55 | 206 | 2.6 | 6.1 | 0.00 | 0.00 | 0.00 | 89 | 1019.2 |
| 20260504202215 | 56 | 155 | 3.5 | 4.3 | 0.00 | 0.00 | 0.00 | 89 | 1019.6 |
| 20260504201712 | 56 | 185 | 3.5 | 7.0 | 0.00 | 0.00 | 0.00 | 89 | 1019.5 |
| 20260504201209 | 56 | 198 | 1.7 | 6.1 | 0.00 | 0.00 | 0.00 | 89 | 1019.2 |
| 20260504200707 | 56 | 142 | 3.5 | 5.2 | 0.00 | 0.00 | 0.00 | 89 | 1019.4 |
| 20260504200203 | 56 | 150 | 2.6 | 6.1 | 0.00 | 0.00 | 0.00 | 89 | 1018.9 |
| 20260504195659 | 56 | 128 | 3.5 | 6.1 | 0.00 | 0.00 | 0.00 | 89 | 1019.2 |
| 20260504195155 | 56 | 121 | 5.2 | 6.1 | 0.00 | 0.00 | 0.00 | 89 | 1019.0 |
| 20260504194653 | 56 | 139 | 3.5 | 6.1 | 0.00 | 0.00 | 0.00 | 89 | 1019.0 |
| 20260504194148 | 56 | 155 | 5.2 | 6.1 | 0.00 | 0.00 | 0.00 | 89 | 1018.9 |
| 20260504193645 | 56 | 147 | 4.3 | 7.0 | 0.00 | 0.00 | 0.00 | 88 | 1019.0 |
| 20260504193143 | 57 | 149 | 4.3 | 6.1 | 0.00 | 0.00 | 0.00 | 88 | 1019.0 |
| 20260504192641 | 57 | 172 | 2.6 | 4.3 | 0.00 | 0.00 | 0.00 | 88 | 1018.8 |
| 20260504192139 | 57 | 212 | 1.7 | 2.6 | 0.00 | 0.00 | 0.00 | 88 | 1019.2 |
| 20260504191637 | 57 | 132 | 5.2 | 6.1 | 0.00 | 0.00 | 0.00 | 88 | 1018.8 |
| 20260504191133 | 57 | 140 | 2.6 | 5.2 | 0.00 | 0.00 | 0.00 | 88 | 1018.7 |
| 20260504190629 | 57 | 172 | 2.6 | 4.3 | 0.00 | 0.00 | 0.00 | 88 | 1018.9 |
| 20260504190126 | 57 | 148 | 3.5 | 5.2 | 0.00 | 0.00 | 0.00 | 88 | 1018.7 |
| 20260504185622 | 57 | 86 | 2.6 | 5.2 | 0.00 | 0.00 | 0.00 | 88 | 1018.6 |
| 20260504185119 | 57 | 135 | 2.6 | 4.3 | 0.00 | 0.00 | 0.00 | 88 | 1018.6 |
| 20260504184615 | 57 | 191 | 2.6 | 4.3 | 0.00 | 0.00 | 0.00 | 88 | 1018.5 |
| 20260504184110 | 57 | 166 | 1.7 | 2.6 | 0.00 | 0.00 | 0.00 | 88 | 1018.5 |
| 20260504183607 | 57 | 80 | 1.7 | 2.6 | 0.00 | 0.00 | 0.00 | 87 | 1018.5 |
| 20260504183105 | 57 | 208 | 2.6 | 2.6 | 0.00 | 0.00 | 0.00 | 87 | 1018.6 |
| 20260504182602 | 57 | 192 | 2.6 | 5.2 | 0.00 | 0.00 | 0.00 | 86 | 1018.3 |
| 20260504182100 | 57 | 218 | 3.5 | 7.8 | 0.00 | 0.00 | 0.00 | 87 | 1018.5 |
| 20260504181556 | 57 | 219 | 6.1 | 8.7 | 0.00 | 0.00 | 0.00 | 87 | 1018.3 |
| 20260504181054 | 57 | 225 | 4.3 | 5.2 | 0.00 | 0.00 | 0.00 | 88 | 1018.6 |
| 20260504180553 | 57 | 185 | 5.2 | 8.7 | 0.00 | 0.00 | 0.00 | 88 | 1018.4 |
| 20260504180052 | 57 | 187 | 2.6 | 5.2 | 0.00 | 0.00 | 0.00 | 88 | 1018.5 |
| 20260504175548 | 57 | 197 | 3.5 | 5.2 | 0.00 | 0.00 | 0.00 | 87 | 1018.5 |
| 20260504175045 | 57 | 193 | 4.3 | 7.0 | 0.00 | 0.00 | 0.00 | 87 | 1018.6 |
| 20260504174543 | 58 | 189 | 3.5 | 7.0 | 0.00 | 0.00 | 0.00 | 86 | 1018.3 |
| 20260504174040 | 58 | 225 | 7.8 | 9.6 | 0.00 | 0.00 | 0.00 | 86 | 1018.6 |
| 20260504173537 | 58 | 235 | 7.8 | 9.6 | 0.00 | 0.00 | 0.00 | 87 | 1018.6 |
| 20260504173034 | 57 | 240 | 6.1 | 7.0 | 0.00 | 0.00 | 0.00 | 87 | 1018.4 |
| 20260504172530 | 57 | 249 | 5.2 | 8.7 | 0.00 | 0.00 | 0.00 | 87 | 1018.6 |
| 20260504172027 | 57 | 218 | 9.6 | 11.3 | 0.00 | 0.00 | 0.00 | 88 | 1018.7 |
| 20260504171524 | 57 | 177 | 6.1 | 8.7 | 0.00 | 0.00 | 0.00 | 88 | 1018.7 |
| 20260504171021 | 57 | 248 | 1.7 | 4.3 | 0.00 | 0.00 | 0.00 | 88 | 1018.9 |
| 20260504170516 | 57 | 134 | 2.6 | 4.3 | 0.00 | 0.00 | 0.00 | 88 | 1018.8 |
| 20260504160437 | 58 | 156 | 3.5 | 4.3 | 0.00 | 0.00 | 0.00 | 84 | 1018.5 |
| 20260504150900 | 59 | 218 | 5.2 | 7.8 | 0.00 | 0.00 | 0.00 | 78 | 1018.5 |
| 20260504150358 | 59 | 223 | 6.1 | 8.7 | 0.00 | 0.00 | 0.00 | 79 | 1018.6 |
| 20260504141327 | 60 | 228 | 5.2 | 7.8 | 0.00 | 0.00 | 0.00 | 76 | 1018.3 |
| 20260504140824 | 60 | 234 | 7.8 | 12.2 | 0.00 | 0.00 | 0.00 | 76 | 1018.1 |
| 20260504140319 | 60 | 229 | 6.1 | 7.8 | 0.00 | 0.00 | 0.00 | 76 | 1018.1 |
| 20260504130748 | 60 | 239 | 7.0 | 8.7 | 0.00 | 0.00 | 0.00 | 75 | 1017.9 |
| 20260504130244 | 60 | 210 | 4.3 | 7.0 | 0.00 | 0.00 | 0.00 | 75 | 1018.2 |
| 20260504120208 | 60 | 233 | 8.7 | 12.2 | 0.00 | 0.00 | 0.00 | 72 | 1017.9 |
| 20260504110636 | 61 | 216 | 7.8 | 8.7 | 0.00 | 0.00 | 0.00 | 75 | 1017.0 |
| 20260504110131 | 61 | 219 | 9.6 | 9.6 | 0.00 | 0.00 | 0.00 | 75 | 1017.2 |
| 20260504100557 | 60 | 223 | 6.1 | 7.8 | 0.00 | 0.00 | 0.00 | 78 | 1016.3 |
| 20260504081951 | 60 | 190 | 6.1 | 7.8 | 0.00 | 0.00 | 0.00 | 81 | 1014.9 |
| 20260504081448 | 60 | 206 | 7.8 | 12.2 | 0.00 | 0.00 | 0.00 | 80 | 1015.0 |
| 20260504080943 | 61 | 222 | 9.6 | 13.9 | 0.00 | 0.00 | 0.00 | 78 | 1014.9 |
| 20260504080441 | 62 | 209 | 13.9 | 19.1 | 0.00 | 0.00 | 0.00 | 77 | 1014.8 |
| 20260504070408 | 63 | 261 | 13.0 | 15.6 | 0.00 | 0.00 | 0.00 | 74 | 1013.9 |
| 20260504050253 | 64 | 257 | 11.3 | 13.9 | 0.00 | 0.00 | 0.00 | 73 | 1012.9 |
| 20260504045751 | 64 | 254 | 13.9 | 17.4 | 0.00 | 0.00 | 0.00 | 72 | 1012.7 |
| 20260504045245 | 64 | 243 | 11.3 | 15.6 | 0.00 | 0.00 | 0.00 | 71 | 1012.8 |
| 20260504044743 | 64 | 243 | 10.4 | 14.8 | 0.00 | 0.00 | 0.00 | 71 | 1012.5 |
| 20260504044240 | 64 | 265 | 10.4 | 13.9 | 0.00 | 0.00 | 0.00 | 69 | 1012.6 |
| 20260504043737 | 64 | 247 | 13.0 | 15.6 | 0.00 | 0.00 | 0.00 | 68 | 1012.5 |
| 20260504043234 | 64 | 233 | 8.7 | 14.8 | 0.00 | 0.00 | 0.00 | 70 | 1012.7 |
| 20260504042732 | 64 | 265 | 8.7 | 13.0 | 0.00 | 0.00 | 0.00 | 72 | 1012.6 |
| 20260504042228 | 64 | 271 | 8.7 | 13.0 | 0.00 | 0.00 | 0.00 | 73 | 1012.5 |
| 20260504041724 | 64 | 264 | 10.4 | 13.0 | 0.00 | 0.00 | 0.00 | 73 | 1012.6 |
| 20260504041220 | 64 | 252 | 12.2 | 14.8 | 0.00 | 0.00 | 0.00 | 73 | 1012.5 |
| 20260504040716 | 64 | 264 | 12.2 | 13.9 | 0.00 | 0.00 | 0.00 | 73 | 1012.5 |
| 20260504040214 | 63 | 273 | 9.6 | 13.9 | 0.00 | 0.00 | 0.00 | 73 | 1012.4 |